When you browse on this site, cookies collect data to enhance your experience and personalize the content and advertising you see.
Visit our Privacy Policy to learn more. By continuing to use the site, you agree to this use of cookies and data.
  • In Austria
  • List of Countries
  • For 7 days
  • Water Temperature
  • Satellite Maps
  • Weather Map
  • News
  • Weather Widgets
  • user-avatar
    Login

    Hourly Weather Newcastle

    Today, 24 March, Sunday

    Time Temperature Precipitation Wind Pressure Humidity
    00:00 +24°C° 0.1 mm 3 mps 758 mmHg 88%
    01:00 +24°C° 0.1 mm 3 mps 758 mmHg 89%
    02:00 +24°C° 0 mm 2 mps 758 mmHg 91%
    03:00 +23°C° 0 mm 2 mps 757 mmHg 92%
    04:00 +21°C° 0 mm 2 mps 757 mmHg 93%
    05:00 +23°C° 0 mm 2 mps 757 mmHg 91%
    06:00 +23°C° 0 mm 2 mps 758 mmHg 89%
    07:00 +23°C° 0 mm 1 mps 758 mmHg 87%
    08:00 +26°C° 0 mm 1 mps 758 mmHg 74%
    09:00 +29°C° 0 mm 1 mps 757 mmHg 61%
    10:00 +31°C° 0 mm 3 mps 758 mmHg 51%
    11:00 +34°C° 0 mm 2 mps 757 mmHg 44%
    12:00 +36°C° 0 mm 2 mps 757 mmHg 37%
    13:00 +39°C° 0 mm 2 mps 757 mmHg 29%
    14:00 +36°C° 0 mm 3 mps 756 mmHg 38%
    15:00 +34°C° 0 mm 3 mps 756 mmHg 46%
    16:00 +32°C° 0 mm 4 mps 755 mmHg 54%
    17:00 +29°C° 0 mm 3 mps 756 mmHg 65%
    18:00 +27°C° 0 mm 2 mps 756 mmHg 76%
    19:00 +25°C° 0 mm 1 mps 757 mmHg 86%
    20:00 +25°C° 0.1 mm 1 mps 757 mmHg 87%
    21:00 +25°C° 0.1 mm 2 mps 757 mmHg 89%
    22:00 +24°C° 0.1 mm 2 mps 757 mmHg 90%
    23:00 +24°C° 0 mm 2 mps 757 mmHg 91%

    Tomorrow, 25 March, Monday

    Time Temperature Precipitation Wind Pressure Humidity
    00:00 +24°C° 0 mm 2 mps 757 mmHg 92%
    01:00 +23°C° 0 mm 2 mps 757 mmHg 93%
    02:00 +23°C° 0 mm 2 mps 756 mmHg 92%
    03:00 +24°C° 0 mm 2 mps 756 mmHg 91%
    04:00 +24°C° 0 mm 2 mps 756 mmHg 90%
    05:00 +24°C° 0 mm 2 mps 756 mmHg 89%
    06:00 +24°C° 0 mm 2 mps 756 mmHg 88%
    07:00 +24°C° 0 mm 1 mps 756 mmHg 87%
    08:00 +25°C° 0 mm 2 mps 756 mmHg 82%
    09:00 +26°C° 0 mm 2 mps 757 mmHg 78%
    10:00 +27°C° 0 mm 3 mps 757 mmHg 73%
    11:00 +28°C° 0 mm 3 mps 756 mmHg 64%
    12:00 +30°C° 0 mm 3 mps 756 mmHg 55%
    13:00 +33°C° 0 mm 4 mps 756 mmHg 46%
    14:00 +30°C° 0.4 mm 4 mps 756 mmHg 56%
    15:00 +28°C° 0.4 mm 4 mps 756 mmHg 67%
    16:00 +26°C° 0.4 mm 4 mps 756 mmHg 78%
    17:00 +25°C° 0.8 mm 5 mps 757 mmHg 82%
    18:00 +23°C° 0.8 mm 5 mps 757 mmHg 87%
    19:00 +22°C° 0.8 mm 5 mps 758 mmHg 91%
    20:00 +22°C° 0 mm 5 mps 758 mmHg 91%
    21:00 +22°C° 0 mm 4 mps 758 mmHg 90%
    22:00 +22°C° 0 mm 4 mps 759 mmHg 89%
    23:00 +22°C° 0 mm 4 mps 759 mmHg 89%

    Day after tomorrow, 26 March, Tuesday

    Time Temperature Precipitation Wind Pressure Humidity
    00:00 +22°C° 0 mm 3 mps 759 mmHg 89%
    01:00 +22°C° 0 mm 3 mps 759 mmHg 89%
    02:00 +22°C° 0.1 mm 3 mps 759 mmHg 89%
    03:00 +22°C° 0.1 mm 3 mps 759 mmHg 88%
    04:00 +22°C° 0.1 mm 3 mps 759 mmHg 88%
    05:00 +21°C° 0.1 mm 4 mps 760 mmHg 87%
    06:00 +20°C° 0.1 mm 4 mps 761 mmHg 86%
    07:00 +19°C° 0.1 mm 4 mps 762 mmHg 85%
    08:00 +20°C° 0 mm 5 mps 762 mmHg 74%
    09:00 +21°C° 0 mm 5 mps 763 mmHg 62%
    10:00 +22°C° 0 mm 5 mps 763 mmHg 51%
    11:00 +23°C° 0 mm 4 mps 763 mmHg 44%
    12:00 +25°C° 0 mm 4 mps 763 mmHg 36%
    13:00 +26°C° 0 mm 4 mps 762 mmHg 29%
    14:00 +26°C° 0 mm 4 mps 762 mmHg 32%
    15:00 +25°C° 0 mm 5 mps 762 mmHg 34%
    16:00 +23°C° 0 mm 5 mps 762 mmHg 36%
    17:00 +21°C° 0 mm 5 mps 763 mmHg 45%
    18:00 +20°C° 0 mm 5 mps 764 mmHg 55%
    19:00 +18°C° 0 mm 4 mps 764 mmHg 64%
    20:00 +18°C° 0 mm 4 mps 765 mmHg 66%
    21:00 +18°C° 0 mm 4 mps 766 mmHg 69%
    22:00 +18°C° 0 mm 4 mps 767 mmHg 72%
    23:00 +17°C° 0 mm 4 mps 767 mmHg 72%

    27 March, Wednesday

    Time Temperature Precipitation Wind Pressure Humidity
    00:00 +17°C° 0 mm 3 mps 767 mmHg 72%
    01:00 +17°C° 0 mm 3 mps 766 mmHg 72%
    02:00 +17°C° 0 mm 3 mps 766 mmHg 72%
    03:00 +17°C° 0 mm 3 mps 766 mmHg 73%
    04:00 +17°C° 0 mm 3 mps 766 mmHg 73%
    05:00 +17°C° 0 mm 3 mps 767 mmHg 72%
    06:00 +18°C° 0 mm 3 mps 767 mmHg 71%
    07:00 +19°C° 0 mm 3 mps 767 mmHg 70%
    08:00 +20°C° 0 mm 4 mps 768 mmHg 64%
    09:00 +22°C° 0 mm 4 mps 768 mmHg 57%
    10:00 +25°C° 0 mm 4 mps 768 mmHg 51%
    11:00 +25°C° 0 mm 4 mps 768 mmHg 53%
    12:00 +23°C° 0 mm 4 mps 767 mmHg 55%
    13:00 +23°C° 0 mm 4 mps 767 mmHg 57%
    14:00 +24°C° 0 mm 3 mps 767 mmHg 60%
    15:00 +22°C° 0 mm 3 mps 766 mmHg 64%
    16:00 +22°C° 0 mm 3 mps 766 mmHg 67%
    17:00 +21°C° 0 mm 3 mps 766 mmHg 70%
    18:00 +21°C° 0 mm 3 mps 766 mmHg 73%
    19:00 +21°C° 0 mm 3 mps 767 mmHg 76%
    20:00 +20°C° 0.2 mm 3 mps 767 mmHg 80%
    21:00 +20°C° 0.2 mm 3 mps 767 mmHg 84%
    22:00 +19°C° 0.2 mm 3 mps 767 mmHg 88%
    23:00 +19°C° 0.2 mm 3 mps 766 mmHg 89%

    28 March, Thursday

    Time Temperature Precipitation Wind Pressure Humidity
    00:00 +19°C° 0.2 mm 2 mps 766 mmHg 90%
    01:00 +19°C° 0.2 mm 2 mps 765 mmHg 91%
    02:00 +19°C° 0.1 mm 2 mps 765 mmHg 89%
    03:00 +20°C° 0.1 mm 1 mps 764 mmHg 88%
    04:00 +19°C° 0.1 mm 1 mps 764 mmHg 87%
    05:00 +20°C° 0 mm 1 mps 764 mmHg 86%
    06:00 +20°C° 0 mm 1 mps 764 mmHg 85%
    07:00 +20°C° 0 mm 1 mps 765 mmHg 84%
    08:00 +21°C° 0 mm 2 mps 765 mmHg 75%
    09:00 +25°C° 0 mm 2 mps 765 mmHg 65%
    10:00 +27°C° 0 mm 3 mps 765 mmHg 56%
    11:00 +27°C° 0 mm 3 mps 764 mmHg 54%
    12:00 +28°C° 0 mm 3 mps 763 mmHg 52%
    13:00 +29°C° 0 mm 4 mps 762 mmHg 50%
    14:00 +29°C° 0 mm 4 mps 762 mmHg 52%
    15:00 +29°C° 0 mm 5 mps 761 mmHg 54%
    16:00 +28°C° 0 mm 5 mps 761 mmHg 56%
    17:00 +27°C° 0 mm 5 mps 761 mmHg 62%
    18:00 +25°C° 0 mm 5 mps 762 mmHg 69%
    19:00 +22°C° 0 mm 4 mps 762 mmHg 75%
    20:00 +22°C° 0 mm 4 mps 762 mmHg 78%
    21:00 +21°C° 0 mm 4 mps 762 mmHg 81%
    22:00 +20°C° 0 mm 4 mps 762 mmHg 84%
    23:00 +20°C° 0 mm 4 mps 761 mmHg 85%

    29 March, Friday

    Time Temperature Precipitation Wind Pressure Humidity
    00:00 +20°C° 0 mm 4 mps 761 mmHg 87%
    01:00 +19°C° 0 mm 3 mps 760 mmHg 89%
    02:00 +19°C° 0 mm 3 mps 760 mmHg 90%
    03:00 +19°C° 0 mm 3 mps 760 mmHg 90%
    04:00 +19°C° 0 mm 3 mps 759 mmHg 91%
    05:00 +19°C° 0 mm 3 mps 760 mmHg 89%
    06:00 +19°C° 0 mm 3 mps 760 mmHg 87%
    07:00 +20°C° 0 mm 3 mps 760 mmHg 86%
    08:00 +22°C° 0 mm 3 mps 760 mmHg 75%
    09:00 +26°C° 0 mm 3 mps 759 mmHg 64%
    10:00 +29°C° 0 mm 2 mps 759 mmHg 54%
    11:00 +30°C° 0 mm 2 mps 758 mmHg 49%
    12:00 +32°C° 0 mm 2 mps 757 mmHg 44%
    13:00 +33°C° 0 mm 1 mps 757 mmHg 39%
    14:00 +32°C° 0 mm 2 mps 756 mmHg 45%
    15:00 +30°C° 0 mm 3 mps 756 mmHg 51%
    16:00 +29°C° 0 mm 4 mps 756 mmHg 57%
    17:00 +27°C° 0.6 mm 3 mps 756 mmHg 68%
    18:00 +25°C° 0.6 mm 2 mps 756 mmHg 79%
    19:00 +23°C° 0.6 mm 2 mps 757 mmHg 90%
    20:00 +21°C° 0.2 mm 2 mps 757 mmHg 91%
    21:00 +21°C° 0.2 mm 3 mps 757 mmHg 93%
    22:00 +21°C° 0.2 mm 3 mps 757 mmHg 94%
    23:00 +20°C° 0 mm 3 mps 757 mmHg 95%
    Show more